sat.trackr.live / text

‹ back to catalog

COSMOS 2579

NORAD 61730 · 2024-197A

PAYLOAD ACTIVE UNKNOWN

§ Identity

Operator
Country
CIS
Launch date
2024-10-31
Launch site
PLMSC
Launch vehicle
Mass (kg)
RCS (m²)

External: N2YO · Heavens-Above · Gunter

§ Orbital elements

Epoch: 2026-05-25T04:05:10.701600Z

Period
94.44 min
Inclination
97.5588°
Eccentricity
0.0003154
Mean motion
15.24705416 rev/d
Perigee alt
489.5 km
Apogee alt
493.8 km
Semi-major
6,869.8 km
B*
1.3058e-4
RAAN
68.9386°
Arg perigee
96.2941°
Mean anomaly
263.8656°
Rev number
8,696

§ Raw data

COSMOS 25791 61730U 24197A   26145.17026275  .00003155  00000+0  13058-3 0  99912 61730  97.5588  68.9386 0003154  96.2941 263.8656 15.24705416 86965

JSON: /api/v1/satellites/61730 · /tle

For live sub-satellite position, see the globe view (requires WebGL).

§ Visibility from observer

Set your observer location to see the next 7 days of passes ≥ 10°. The values pass through the URL so the page stays shareable.

No JS? Fill the form by hand. The geolocation button needs JavaScript.